Meadow Lake, CO

6:02 AM MDT on June 23, 2017 (GMT -0600)
Meadow Lake

Weather History for KFLY - March, 2013

Change the Weather History Date:

Wednesday, March 20, 2013

  Actual Average (KCOS) Record (KCOS)
Temperature  
Mean Temperature 28 °F -  
Max Temperature 41 °F 52 °F 76 °F (2017)
Min Temperature 16 °F 26 °F -2 °F (1965)
Degree Days  
Heating Degree Days 36    
Moisture  
Dew Point 13 °F    
Average Humidity 59    
Maximum Humidity 80    
Minimum Humidity 32    
Precipitation  
Precipitation 0.00 in - - ()
Sea Level Pressure  
Sea Level Pressure 30.09 in    
Wind  
Wind Speed 6 mph (WSW)    
Max Wind Speed 14 mph    
Max Gust Speed 16 mph    
Visibility 10 miles    
Events      
Averages and records for this station are not official NWS values.
T = Trace of Precipitation, MM = Missing Value Source: NWS Daily Summary

Daily Weather History Graph

Daily Weather History Graph

Search for Another Location

Airport or City:

Trip Planner

Search our weather history database for the weather conditions in past years. The results will help you decide how hot, cold, wet, or windy it might be!

Date:

Astronomy

Mar. 20, 2013 Rise Set
Actual Time 7:01 AM MDT 7:10 PM MDT
Civil Twilight 6:34 AM MDT 7:37 PM MDT
Nautical Twilight 6:03 AM MDT 8:08 PM MDT
Astronomical Twilight 5:32 AM MDT 8:40 PM MDT
Moon 12:50 PM MDT (3/20) 2:39 AM MDT (3/20)
Length of Visible Light 13h 02m
Length of Day
12h 09m
First Quarter, 60% of the Moon is Illuminated
Mar 20
First Quarter
Mar 27
Full
Apr 2
Last Quarter
Apr 10
New
Apr 18
First Quarter

Hourly Weather History & Observations

Time (MDT) Temp. Windchill Dew Point Humidity Pressure Visibility Wind Dir Wind Speed Gust Speed Precip Events Conditions
12:12 AM 23.9 °F 15.8 °F 9.5 °F 54% 30.29 in 10.0 mi North 6.9 mph - N/A   Clear
12:32 AM 22.8 °F 16.7 °F 9.9 °F 58% 30.29 in 10.0 mi NNE 4.6 mph - N/A   Clear
12:52 AM 21.2 °F 13.6 °F 10.0 °F 62% 30.30 in 10.0 mi North 5.8 mph - N/A   Clear
1:12 AM 21.6 °F 14.0 °F 10.6 °F 63% 30.29 in 10.0 mi NNE 5.8 mph - N/A   Clear
1:32 AM 20.3 °F 13.8 °F 11.3 °F 68% 30.28 in 10.0 mi NNE 4.6 mph - N/A   Clear
1:52 AM 18.7 °F 10.6 °F 11.5 °F 74% 30.28 in 10.0 mi NNE 5.8 mph - N/A   Clear
2:12 AM 19.2 °F 11.3 °F 12.7 °F 76% 30.27 in 10.0 mi NNE 5.8 mph - N/A   Clear
2:32 AM 19.0 °F 13.9 °F 12.9 °F 77% 30.26 in 10.0 mi North 3.5 mph - N/A   Clear
2:52 AM 17.6 °F - 11.5 °F 77% 30.26 in 10.0 mi Calm Calm - N/A   Clear
3:12 AM 17.1 °F - 11.5 °F 79% 30.25 in 10.0 mi Calm Calm - N/A   Clear
3:32 AM 16.3 °F - 11.1 °F 80% 30.25 in 10.0 mi Calm Calm - N/A   Clear
3:52 AM 18.0 °F 9.8 °F 12.2 °F 78% 30.24 in 10.0 mi SW 5.8 mph - N/A   Clear
4:12 AM 18.3 °F 11.5 °F 12.2 °F 77% 30.23 in 10.0 mi WSW 4.6 mph - N/A   Clear
4:32 AM 18.9 °F 9.8 °F 12.2 °F 75% 30.23 in 10.0 mi SW 6.9 mph - N/A   Clear
4:52 AM 18.5 °F 8.4 °F 11.7 °F 75% 30.23 in 10.0 mi SW 8.1 mph - N/A   Clear
5:12 AM 17.6 °F 8.2 °F 11.3 °F 76% 30.23 in 10.0 mi SW 6.9 mph - N/A   Clear
5:32 AM 17.8 °F 10.9 °F 11.7 °F 77% 30.22 in 10.0 mi SW 4.6 mph - N/A   Clear
5:52 AM 19.0 °F 12.3 °F 12.2 °F 75% 30.22 in 10.0 mi SW 4.6 mph - N/A   Clear
6:12 AM 19.0 °F 13.9 °F 11.8 °F 74% 30.22 in 10.0 mi SW 3.5 mph - N/A   Clear
6:32 AM 18.3 °F 9.1 °F 11.3 °F 74% 30.22 in 10.0 mi SW 6.9 mph - N/A   Clear
6:52 AM 17.6 °F 7.3 °F 12.0 °F 79% 30.20 in 10.0 mi SW 8.1 mph - N/A   Clear
7:12 AM 17.6 °F 9.3 °F 12.0 °F 79% 30.20 in 10.0 mi SW 5.8 mph - N/A   Clear
7:32 AM 19.0 °F 11.1 °F 13.3 °F 78% 30.20 in 10.0 mi SSW 5.8 mph - N/A   Clear
7:52 AM 22.1 °F 15.9 °F 14.5 °F 73% 30.20 in 10.0 mi SSW 4.6 mph - N/A   Clear
8:12 AM 23.5 °F 13.7 °F 15.8 °F 72% 30.19 in 10.0 mi South 9.2 mph - N/A   Clear
8:52 AM 26.8 °F 15.4 °F 13.1 °F 56% 30.18 in 10.0 mi SSW 13.8 mph - N/A   Clear
9:12 AM 27.0 °F 15.6 °F 12.2 °F 54% 30.17 in 10.0 mi SSW 13.8 mph - N/A   Clear
9:52 AM 28.2 °F 17.7 °F 13.6 °F 54% 30.15 in 10.0 mi SSW 12.7 mph - N/A   Clear
10:12 AM 30.4 °F 21.5 °F 13.5 °F 50% 30.14 in 10.0 mi SSW 10.4 mph - N/A   Clear
10:32 AM 31.1 °F 21.9 °F 12.2 °F 46% 30.13 in 10.0 mi South 11.5 mph - N/A   Clear
10:52 AM 32.0 °F 23.6 °F 12.7 °F 45% 30.12 in 10.0 mi South 10.4 mph 16.1 mph N/A   Clear
11:12 AM 32.4 °F 26.0 °F 11.5 °F 42% 30.11 in 10.0 mi South 6.9 mph 16.1 mph N/A   Clear
11:32 AM 34.3 °F 27.0 °F 12.2 °F 40% 30.10 in 10.0 mi SW 9.2 mph - N/A   Clear
11:52 AM - - - N/A% - - North - - N/A   Unknown
12:12 PM - - - N/A% - - North - - N/A   Unknown
12:32 PM - - - N/A% - - North - - N/A   Unknown
12:52 PM 38.7 °F 31.4 °F 10.6 °F 32% 30.03 in - South 11.5 mph - N/A   Unknown
1:12 PM - - - N/A% - - North - - N/A   Unknown
1:32 PM - - - N/A% - - North - - N/A   Unknown
1:35 PM - - - N/A% - - North - - N/A   Unknown
6:55 PM 39.7 °F 35.6 °F 12.4 °F 33% 29.86 in 10.0 mi WSW 5.8 mph - N/A   Clear
7:15 PM 37.4 °F - 12.0 °F 35% 29.86 in 10.0 mi Calm Calm - N/A   Clear
7:35 PM 37.0 °F 32.4 °F 12.0 °F 36% 29.86 in 10.0 mi West 5.8 mph - N/A   Clear
7:55 PM 34.9 °F 30.8 °F 13.1 °F 41% 29.85 in 10.0 mi WNW 4.6 mph - N/A   Clear
8:15 PM 34.0 °F 28.8 °F 13.5 °F 43% 29.84 in 10.0 mi West 5.8 mph - N/A   Clear
8:35 PM 34.3 °F 28.4 °F 13.8 °F 43% 29.84 in 10.0 mi WNW 6.9 mph - N/A   Clear
8:55 PM 34.0 °F 27.2 °F 14.0 °F 44% 29.84 in 10.0 mi WNW 8.1 mph - N/A   Clear
9:15 PM 33.1 °F 26.1 °F 14.9 °F 47% 29.84 in 10.0 mi WNW 8.1 mph - N/A   Clear
9:35 PM 33.8 °F 27.0 °F 15.1 °F 46% 29.83 in 10.0 mi WNW 8.1 mph - N/A   Clear
9:55 PM 36.3 °F 29.5 °F 17.1 °F 46% 29.82 in 10.0 mi West 9.2 mph - N/A   Clear
10:15 PM 39.7 °F 34.3 °F 18.1 °F 42% 29.82 in 10.0 mi WNW 8.1 mph - N/A   Clear
10:35 PM 37.2 °F 30.6 °F 18.5 °F 47% 29.81 in 10.0 mi WNW 9.2 mph - N/A   Clear
10:55 PM 36.7 °F 29.9 °F 18.9 °F 49% 29.80 in 10.0 mi West 9.2 mph - N/A   Clear
11:15 PM 40.1 °F 32.7 °F 19.0 °F 43% 29.80 in 10.0 mi WNW 12.7 mph - N/A   Clear
11:35 PM 41.0 °F 33.9 °F 19.2 °F 42% 29.80 in 10.0 mi WNW 12.7 mph - N/A   Clear
11:55 PM 41.2 °F 34.1 °F 18.9 °F 41% 29.78 in 10.0 mi WNW 12.7 mph - N/A   Clear